Location: ?????oe
(44.4874°N, 135.7046°E)
Time: 07:06:43
(UTC+00:00)

SL-16 R/B - Pass Details

Date: 13 December 2025
Orbit: 841 x 845 km, 71.0° (Epoch: 13 January)

Event Time Altitude Azimuth Distance (km) Brightness Sun altitude
Exits shadow 19:37:34 77° 145° (SE) 871 2.2 -29.0°
Drops below altitude 10° 19:42:47 10° 155° (SSE) 2,458 4.9 -28.0°
Sets 19:45:12 0° 156° (SSE) 3,388 5.7 -27.6°
